This is the latest recevied weather packets stored in our database for station/object IK6IHU-3. If no packets are shown the sender has not sent any weather packets the latest 10 day(s).
| Time | Temp. | Humidity | Pressure | Rain* | Wind** | Luminosity | Snow |
|---|---|---|---|---|---|---|---|
| 1778409394 | 20.56° C | 69% | 1012.1 hPa | 0 mm | - | 0 W/m² | - |
| 1778409334 | 20.56° C | 70% | 1012.1 hPa | 0 mm | - | 0 W/m² | - |
| 1778409274 | 20.56° C | 70% | 1012.3 hPa | 0 mm | - | 0 W/m² | - |
| 1778409214 | 20° C | 68% | 1012.2 hPa | 0 mm | - | 0 W/m² | - |
| 1778409154 | 20° C | 67% | 1012.2 hPa | 0 mm | - | 0 W/m² | - |
| 1778409094 | 20.56° C | 68% | 1012.3 hPa | 0 mm | - | 0 W/m² | - |
| 1778409034 | 20.56° C | 69% | 1012.3 hPa | 0 mm | - | 0 W/m² | - |
| 1778408974 | 20° C | 66% | 1012.4 hPa | 0 mm | - | 0 W/m² | - |
| 1778408914 | 20° C | 66% | 1012.4 hPa | 0 mm | - | 0 W/m² | - |
| 1778408854 | 20° C | 67% | 1012.2 hPa | 0 mm | - | 0 W/m² | - |
| 1778408794 | 20° C | 68% | 1012.1 hPa | 0 mm | - | 0 W/m² | - |
| 1778408734 | 20° C | 69% | 1012.2 hPa | 0 mm | - | 0 W/m² | - |
| 1778408674 | 19.44° C | 69% | 1012.2 hPa | 0 mm | - | 0 W/m² | - |
| 1778408614 | 20° C | 69% | 1012.4 hPa | 0 mm | - | 0 W/m² | - |
| 1778408555 | 19.44° C | 68% | 1012.2 hPa | 0 mm | - | 0 W/m² | - |
| 1778408494 | 19.44° C | 69% | 1012.3 hPa | 0 mm | - | 0 W/m² | - |
| 1778408434 | 19.44° C | 69% | 1012.1 hPa | 0 mm | - | 0 W/m² | - |
| 1778408374 | 19.44° C | 68% | 1012.2 hPa | 0 mm | - | 0 W/m² | - |
| 1778408314 | 20° C | 70% | 1012.1 hPa | 0 mm | - | 0 W/m² | - |
| 1778408254 | 19.44° C | 70% | 1012.3 hPa | 0 mm | - | 0 W/m² | - |
| 1778408194 | 19.44° C | 70% | 1012.3 hPa | 0 mm | - | 0 W/m² | - |
| 1778408134 | 19.44° C | 70% | 1012.6 hPa | 0 mm | - | 0 W/m² | - |
| 1778408074 | 19.44° C | 70% | 1012.4 hPa | 0 mm | - | 0 W/m² | - |
| 1778408014 | 20° C | 70% | 1012.5 hPa | 0 mm | - | 0 W/m² | - |
| 1778407954 | 20° C | 71% | 1012.3 hPa | 0 mm | - | 0 W/m² | - |
* Rain latest hour (hover to see other rain measurements)
** Current wind speed in m/s (hover to see current wind gust speed)